Vero Beach, FL

1:49 AM EDT on August 24, 2016 (GMT -0400)
Vero Beach Municipal

Weather History for KVRB - November, 2011

Change the Weather History Date:

Wednesday, November 2, 2011

  Actual Average Record
Temperature  
Mean Temperature 75 °F 73 °F  
Max Temperature 79 °F 81 °F 89 °F (1996)
Min Temperature 71 °F 65 °F 41 °F (2014)
Degree Days  
Heating Degree Days 0 0  
Month to date heating degree days 0 0  
Since 1 July heating degree days 3 3  
Cooling Degree Days 10 8  
Month to date cooling degree days 19 16  
Year to date cooling degree days 3363 3144  
Growing Degree Days 25 (Base 50)    
Moisture  
Dew Point 61 °F    
Average Humidity 61    
Maximum Humidity 73    
Minimum Humidity 48    
Precipitation  
Precipitation 0.04 in 0.12 in 2.63 in (2009)
Month to date precipitation 0.04 0.24  
Year to date precipitation 58.55 46.64  
Sea Level Pressure  
Sea Level Pressure 30.14 in    
Wind  
Wind Speed 11 mph (NE)    
Max Wind Speed 17 mph    
Max Gust Speed 23 mph    
Visibility 10 miles    
Events Rain    
T = Trace of Precipitation, MM = Missing Value Source: NWS Daily Summary

Daily Weather History Graph

Daily Weather History Graph

Search for Another Location

Airport or City:

Trip Planner

Search our weather history database for the weather conditions in past years. The results will help you decide how hot, cold, wet, or windy it might be!

Date:

Astronomy

Nov. 02, 2011 Rise Set
Actual Time 7:32 AM EDT 6:37 PM EDT
Civil Twilight 7:08 AM EDT 7:01 PM EDT
Nautical Twilight 6:41 AM EDT 7:29 PM EDT
Astronomical Twilight 6:13 AM EDT 7:56 PM EDT
Moon 1:52 PM EDT (11/2) 12:22 AM EDT (11/2)
Length of Visible Light 11h 52m
Length of Day
11h 04m
Waxing Crescent, 50% of the Moon is Illuminated
Nov 2
Waxing Crescent
Nov 2
First Quarter
Nov 10
Full
Nov 18
Last Quarter
Nov 25
New

Hourly Weather History & Observations

Time (EDT) Temp. Dew Point Humidity Pressure Visibility Wind Dir Wind Speed Gust Speed Precip Events Conditions
12:53 AM 72.0 °F 61.0 °F 68% 30.13 in 10.0 mi NE 12.7 mph - N/A   Partly Cloudy
1:53 AM 72.0 °F 61.0 °F 68% 30.12 in 10.0 mi NE 11.5 mph 18.4 mph N/A   Scattered Clouds
2:53 AM 72.0 °F 61.0 °F 68% 30.11 in 10.0 mi NE 12.7 mph 19.6 mph N/A   Clear
3:53 AM 71.1 °F 61.0 °F 70% 30.11 in 10.0 mi NE 8.1 mph - N/A   Partly Cloudy
4:53 AM 72.0 °F 61.0 °F 68% 30.12 in 10.0 mi NE 9.2 mph - N/A   Mostly Cloudy
5:53 AM 72.0 °F 61.0 °F 68% 30.13 in 10.0 mi NE 9.2 mph - N/A   Overcast
6:53 AM 71.1 °F 61.0 °F 70% 30.14 in 10.0 mi NE 8.1 mph - N/A   Mostly Cloudy
7:53 AM 71.1 °F 61.0 °F 70% 30.15 in 10.0 mi NE 9.2 mph - N/A   Clear
8:53 AM 73.0 °F 61.0 °F 66% 30.17 in 10.0 mi NE 11.5 mph - N/A   Scattered Clouds
9:53 AM 75.9 °F 60.1 °F 58% 30.18 in 10.0 mi NE 12.7 mph - N/A   Clear
10:53 AM 77.0 °F 59.0 °F 54% 30.18 in 10.0 mi NE 13.8 mph - N/A   Partly Cloudy
11:53 AM 77.0 °F 59.0 °F 54% 30.19 in 10.0 mi ENE 9.2 mph - N/A   Clear
12:53 PM 78.1 °F 59.0 °F 52% 30.17 in 10.0 mi ENE 13.8 mph 19.6 mph N/A   Clear
1:53 PM 78.1 °F 57.0 °F 48% 30.15 in 10.0 mi ENE 13.8 mph - N/A   Clear
2:53 PM 79.0 °F 57.0 °F 47% 30.13 in 10.0 mi ENE 15.0 mph - N/A   Partly Cloudy
3:53 PM 78.1 °F 57.9 °F 50% 30.13 in 10.0 mi NE 10.4 mph - N/A   Clear
4:53 PM 77.0 °F 59.0 °F 54% 30.12 in 10.0 mi NE 12.7 mph - N/A   Clear
5:53 PM 75.0 °F 62.1 °F 64% 30.12 in 10.0 mi NE 10.4 mph - N/A   Overcast
6:53 PM 72.0 °F 64.0 °F 76% 30.12 in 10.0 mi NE 8.1 mph - 0.01 in Rain Light Rain
7:53 PM 73.0 °F 63.0 °F 71% 30.13 in 10.0 mi ENE 8.1 mph - 0.00 in   Partly Cloudy
8:53 PM 73.0 °F 62.1 °F 68% 30.13 in 10.0 mi ENE 9.2 mph - N/A   Mostly Cloudy
9:53 PM 73.0 °F 63.0 °F 71% 30.13 in 10.0 mi ENE 9.2 mph - N/A   Partly Cloudy
10:53 PM 73.0 °F 62.1 °F 68% 30.13 in 10.0 mi ENE 10.4 mph - N/A   Clear
11:53 PM 72.0 °F 62.1 °F 71% 30.13 in 10.0 mi ENE 5.8 mph - N/A   Clear